Regional Weather Roundup
Issued by NWS Newport/Morehead, NC

Home | Current Version | Previous Version | Text Only | Print | Product List | Glossary On
Versions: 1 2 3 4 5 6 7 8 9 10 11 12 13 14 15 16 17 18 19 20 21 22 23 24 25 26 27 28 29 30 31 32 33 34 35 36 37 38 39 40 41 42 43 44 45 46 47 48 49 50
000
ASUS42 KMHX 222014
RWRMHX
WEATHER ROUNDUP FOR EASTERN NORTH CAROLINA
NATIONAL WEATHER SERVICE NEWPORT/MOREHEAD CITY NC
400 PM EDT SUN OCT 22 2017

NOTE: "FAIR" INDICATES FEW OR NO CLOUDS BELOW 12,000 FEET
WITH NO SIGNIFICANT WEATHER AND/OR OBSTRUCTIONS TO VISIBILITY

NCZ015>017-031-032-045>047-102-103-222100-
NORTH COAST

CITY           SKY/WX    TMP DP  RH WIND       PRES   REMARKS
EDENTON        SUNNY     78  64  61 CALM      30.30F
ELIZABETH CITY SUNNY     77  61  57 E9        30.31F
KITTY HAWK     CLEAR     73  64  74 CALM      30.31S
MANTEO         SUNNY    N/A N/A N/A E10       30.32S

$$

NCZ045>047-081-094-103-104-222100-
CENTRAL COAST

CITY           SKY/WX    TMP DP  RH WIND       PRES   REMARKS
FRISCO         CLOUDY    80  63  55 SE8       30.30F

$$

NCZ095-097-098-100-101-222100-
SOUTHERN COAST

CITY           SKY/WX    TMP DP  RH WIND       PRES   REMARKS
BEAUFORT       PTSUNNY   76  64  66 E6        30.28F
CEDAR ISLAND   NOT AVBL
JACKSONVILLE   MOSUNNY   79  65  62 SE9       30.27F
PINEY ISLAND     N/A    N/A N/A N/A NE10      30.28F
WILMINGTON     MOSUNNY   79  65  62 E10       30.27F


$$

NCZ011>013-027>030-043-044-078>080-089-090>093-098-222100-
COASTAL PLAIN

CITY           SKY/WX    TMP DP  RH WIND       PRES   REMARKS
AHOSKIE        SUNNY     77  52  42 CALM      30.30S
CLINTON        MOSUNNY   82  61  49 S5        30.27F
ELIZABETHTOWN  NOT AVBL
GOLDSBORO      MOSUNNY   81  60  49 E9        30.26F HAZE
GREENVILLE     SUNNY     81  59  47 E6        30.29F
HAVELOCK       PTSUNNY   76  66  71 NE8       30.29F
KENANSVILLE    PTSUNNY   81  61  50 E3        30.27F
KINSTON        MOSUNNY   81  57  44 S5        30.28F
NEW BERN       PTSUNNY   79  64  60 E9        30.29F
RICHLANDS      MOSUNNY   79  64  60 SE7       30.27F
ROCKY MOUNT    PTSUNNY   80  58  46 S6        30.29F
WASHINGTON     SUNNY     80  60  50 S5        30.29S
WHITEVILLE     CLOUDY    79  62  55 E6        30.25F

$$

AMZ130-135-150-152-154-156-158-170-250-252-270-ANZ085-086-088-633-658-670-222100-
MARINE OBSERVATIONS

STATION/POSITION TIME  TEMP    WIND        PRES    WAVE   SWELL
                       AIR SEA DIR/SP/G            HT/PER HT/PER
                 (UTC) (F)     (DEG/KT/KT) (MB)    (FT/S) (FT/S)
CHESAPEAKE LIGHT NOT AVBL
64 E VA BEACH    1950   70 70  300/  4/  6 1027.4    3/ 9   3/ 9
DUCK             1948   72 70   70/  8/  9 1026.3
2 E DUCK         2000      70                N/A     2/ 8
OREGON INLET     1942   72 71   40/  7/  9 1026.3
13E OREGON INLT  1948      74                N/A     3/ 9   2/ 9
HATTERAS CG      1948   76 72   70/  5/  8 1026.0
DIAMOND BUOY     1950   76 81   70/  6/  8 1025.9    3/ 9   3/ 9
CAPE LOOKOUT     2000   76     110/  9/ 10 1024.9
BEAUFORT LAB     1948   76 72  130/  3/  5 1025.5
30 SE NEW RVR IN 1908   78     140/  8/ 10 1025.2
30 SE NEW RVR IN NOT AVBL
27 SE WRIGHTSVLE 1908   77 76  120/  8/ 12 1025.0
5 SE WRIGHTSVLE  1908   74 74   80/ 12/ 16 1025.1
225 S CAPE HAT   1950   77 80   90/ 12/ 14 1024.3    4/ 8   3/ 8
41 SE CHARLESTON 1950   79 79  100/ 17/ 21 1022.2    6/ 9   2/ 9

$$



USA.gov is the U.S. government's official web portal to all federal, state and local government web resources and services.